| time (UTC) | temp F | wind direction | speed MPH | gust MPH | rain 1hr in | rain 24hr in | rain mn in | humidity % | barometer mb |
| 20260504050427 | 39 | 308 | 0.0 | 0.0 | 0.00 | 0.00 | 0.00 | 74 | 1006.3 |
| 20260504045925 | 40 | 307 | 0.0 | 1.0 | 0.00 | 0.00 | 0.00 | 73 | 1006.3 |
| 20260504045420 | 40 | 307 | 0.0 | 1.0 | 0.00 | 0.00 | 0.00 | 73 | 1006.2 |
| 20260504044916 | 40 | 306 | 0.0 | 0.0 | 0.00 | 0.00 | 0.00 | 73 | 1006.2 |
| 20260504044414 | 40 | 308 | 0.0 | 0.0 | 0.00 | 0.00 | 0.00 | 73 | 1006.1 |
| 20260504043912 | 40 | 307 | 0.0 | 1.0 | 0.00 | 0.00 | 0.00 | 73 | 1006.3 |
| 20260504043408 | 40 | 307 | 1.0 | 1.0 | 0.00 | 0.00 | 0.00 | 73 | 1006.3 |
| 20260504042906 | 40 | 306 | 0.0 | 1.0 | 0.00 | 0.00 | 0.00 | 73 | 1006.2 |
| 20260504042402 | 40 | 308 | 0.0 | 1.0 | 0.00 | 0.00 | 0.00 | 73 | 1006.2 |
| 20260504041858 | 40 | 308 | 0.0 | 0.0 | 0.00 | 0.00 | 0.00 | 74 | 1006.2 |
| 20260504041355 | 40 | 308 | 0.0 | 0.0 | 0.00 | 0.00 | 0.00 | 73 | 1006.1 |
| 20260504040850 | 40 | 308 | 0.0 | 0.0 | 0.00 | 0.00 | 0.00 | 73 | 1006.1 |
| 20260504040349 | 40 | 308 | 0.0 | 0.0 | 0.00 | 0.00 | 0.00 | 72 | 1006.0 |
| 20260504035844 | 40 | 311 | 0.0 | 0.0 | 0.00 | 0.00 | 0.00 | 72 | 1006.2 |
| 20260504035342 | 40 | 312 | 0.0 | 0.0 | 0.00 | 0.00 | 0.00 | 74 | 1005.9 |
| 20260504034839 | 40 | 312 | 0.0 | 0.0 | 0.00 | 0.00 | 0.00 | 74 | 1006.1 |
| 20260504034336 | 40 | 313 | 0.0 | 0.0 | 0.00 | 0.00 | 0.00 | 73 | 1005.8 |
| 20260504033833 | 41 | 313 | 0.0 | 0.0 | 0.00 | 0.00 | 0.00 | 76 | 1005.7 |
| 20260504033331 | 40 | 307 | 0.0 | 0.0 | 0.00 | 0.00 | 0.00 | 74 | 1006.0 |
| 20260504032827 | 39 | 307 | 0.0 | 0.0 | 0.00 | 0.00 | 0.00 | 74 | 1005.8 |
| 20260504032325 | 40 | 307 | 0.0 | 0.0 | 0.00 | 0.00 | 0.00 | 77 | 1005.9 |
| 20260504031822 | 39 | 307 | 0.0 | 0.0 | 0.00 | 0.00 | 0.00 | 76 | 1005.8 |
| 20260504031319 | 39 | 307 | 0.0 | 0.0 | 0.00 | 0.00 | 0.00 | 78 | 1005.8 |
| 20260504030815 | 38 | 307 | 0.0 | 0.0 | 0.00 | 0.00 | 0.00 | 81 | 1005.7 |
| 20260504030313 | 39 | 307 | 0.0 | 0.0 | 0.00 | 0.00 | 0.00 | 84 | 1005.6 |
| 20260504025808 | 39 | 307 | 0.0 | 0.0 | 0.00 | 0.00 | 0.00 | 84 | 1005.8 |
| 20260504025306 | 40 | 307 | 0.0 | 0.0 | 0.00 | 0.00 | 0.00 | 85 | 1005.7 |
| 20260504024802 | 40 | 307 | 0.0 | 0.0 | 0.00 | 0.00 | 0.00 | 83 | 1005.7 |
| 20260504024259 | 40 | 307 | 0.0 | 0.0 | 0.00 | 0.00 | 0.00 | 81 | 1005.8 |
| 20260504023755 | 40 | 307 | 0.0 | 0.0 | 0.00 | 0.00 | 0.00 | 80 | 1005.8 |
| 20260504023252 | 41 | 307 | 0.0 | 0.0 | 0.00 | 0.00 | 0.00 | 80 | 1005.7 |
| 20260504022748 | 41 | 307 | 0.0 | 0.0 | 0.00 | 0.00 | 0.00 | 80 | 1005.6 |
| 20260504022244 | 41 | 307 | 0.0 | 0.0 | 0.00 | 0.00 | 0.00 | 79 | 1005.6 |
| 20260504021741 | 42 | 307 | 0.0 | 0.0 | 0.00 | 0.00 | 0.00 | 78 | 1005.8 |
| 20260504021239 | 42 | 307 | 0.0 | 0.0 | 0.00 | 0.00 | 0.00 | 77 | 1005.7 |
| 20260504020736 | 42 | 307 | 0.0 | 0.0 | 0.00 | 0.00 | 0.00 | 73 | 1005.9 |
| 20260504020232 | 42 | 307 | 0.0 | 0.0 | 0.00 | 0.00 | 0.00 | 65 | 1005.8 |
| 20260504015728 | 42 | 307 | 0.0 | 0.0 | 0.00 | 0.00 | 0.00 | 65 | 1005.9 |
| 20260504015225 | 43 | 307 | 0.0 | 0.0 | 0.00 | 0.00 | 0.00 | 65 | 1005.8 |
| 20260504014720 | 43 | 307 | 0.0 | 0.0 | 0.00 | 0.00 | 0.00 | 64 | 1005.8 |
| 20260504014217 | 43 | 306 | 0.0 | 0.0 | 0.00 | 0.00 | 0.00 | 64 | 1005.7 |
| 20260504013715 | 43 | 306 | 0.0 | 0.0 | 0.00 | 0.00 | 0.00 | 64 | 1005.9 |
| 20260504013213 | 43 | 306 | 0.0 | 0.0 | 0.00 | 0.00 | 0.00 | 63 | 1005.6 |
| 20260504012709 | 44 | 306 | 0.0 | 0.0 | 0.00 | 0.00 | 0.00 | 63 | 1005.5 |
| 20260504012207 | 44 | 306 | 0.0 | 0.0 | 0.00 | 0.00 | 0.00 | 62 | 1005.4 |
| 20260504011704 | 44 | 305 | 0.0 | 0.0 | 0.00 | 0.00 | 0.00 | 62 | 1005.5 |
| 20260504011200 | 44 | 307 | 0.0 | 0.0 | 0.00 | 0.00 | 0.00 | 62 | 1005.4 |
| 20260504010656 | 44 | 306 | 1.0 | 1.0 | 0.00 | 0.00 | 0.00 | 62 | 1005.3 |
| 20260504010152 | 44 | 308 | 0.0 | 0.0 | 0.00 | 0.00 | 0.00 | 62 | 1005.3 |
| 20260504005649 | 44 | 307 | 0.0 | 0.0 | 0.00 | 0.00 | 0.00 | 62 | 1005.0 |
| 20260504005145 | 44 | 308 | 0.0 | 1.0 | 0.00 | 0.00 | 0.00 | 61 | 1005.1 |
| 20260504004644 | 45 | 308 | 0.0 | 0.0 | 0.00 | 0.00 | 0.00 | 60 | 1005.0 |
| 20260504004140 | 45 | 308 | 0.0 | 1.0 | 0.00 | 0.00 | 0.00 | 60 | 1005.0 |
| 20260504003637 | 45 | 308 | 0.0 | 0.0 | 0.00 | 0.00 | 0.00 | 59 | 1005.1 |
| 20260504003133 | 45 | 308 | 0.0 | 0.0 | 0.00 | 0.00 | 0.00 | 59 | 1004.8 |
| 20260504002630 | 46 | 309 | 0.0 | 0.0 | 0.00 | 0.00 | 0.00 | 58 | 1004.6 |
| 20260504002128 | 46 | 308 | 0.0 | 0.0 | 0.00 | 0.00 | 0.00 | 57 | 1004.6 |
| 20260504001626 | 46 | 305 | 0.0 | 0.0 | 0.00 | 0.00 | 0.00 | 56 | 1004.6 |
| 20260504001121 | 47 | 305 | 0.0 | 0.0 | 0.00 | 0.00 | 0.00 | 55 | 1004.3 |
| 20260504000619 | 47 | 309 | 0.0 | 0.0 | 0.00 | 0.00 | 0.00 | 55 | 1004.4 |
| 20260504000116 | 47 | 309 | 1.0 | 2.0 | 0.00 | 0.00 | 0.00 | 54 | 1004.3 |
| 20260503235614 | 48 | 305 | 0.0 | 0.0 | 0.00 | 0.00 | 0.00 | 54 | 1004.2 |
| 20260503235111 | 48 | 305 | 0.0 | 1.0 | 0.00 | 0.00 | 0.00 | 53 | 1003.9 |
| 20260503234609 | 48 | 275 | 2.0 | 3.0 | 0.00 | 0.00 | 0.00 | 55 | 1003.9 |
| 20260503234107 | 48 | 304 | 1.0 | 2.0 | 0.00 | 0.00 | 0.00 | 54 | 1003.9 |
| 20260503233603 | 48 | 305 | 0.0 | 1.0 | 0.00 | 0.00 | 0.00 | 55 | 1003.6 |
| 20260503233059 | 49 | 306 | 1.0 | 1.0 | 0.00 | 0.00 | 0.00 | 54 | 1003.4 |
| 20260503232556 | 49 | 309 | 1.0 | 2.0 | 0.00 | 0.00 | 0.00 | 52 | 1003.4 |
| 20260503232053 | 49 | 304 | 1.0 | 1.0 | 0.00 | 0.00 | 0.00 | 52 | 1003.4 |
| 20260503231551 | 50 | 303 | 2.0 | 2.0 | 0.00 | 0.00 | 0.00 | 52 | 1003.4 |
| 20260503231048 | 50 | 304 | 3.0 | 5.0 | 0.00 | 0.00 | 0.00 | 51 | 1003.4 |
| 20260503230544 | 51 | 304 | 1.0 | 2.0 | 0.00 | 0.00 | 0.00 | 51 | 1003.2 |
| 20260503230042 | 51 | 306 | 1.0 | 1.0 | 0.00 | 0.00 | 0.00 | 50 | 1003.0 |
| 20260503225538 | 51 | 311 | 1.0 | 1.0 | 0.00 | 0.00 | 0.00 | 49 | 1003.0 |
| 20260503225033 | 51 | 304 | 2.0 | 2.0 | 0.00 | 0.00 | 0.00 | 50 | 1002.9 |
| 20260503224531 | 51 | 308 | 1.0 | 1.0 | 0.00 | 0.00 | 0.00 | 50 | 1002.9 |
| 20260503224029 | 51 | 300 | 1.0 | 2.0 | 0.00 | 0.00 | 0.00 | 48 | 1002.7 |
| 20260503223527 | 51 | 311 | 0.0 | 1.0 | 0.00 | 0.00 | 0.00 | 50 | 1002.6 |
| 20260503223022 | 51 | 318 | 0.0 | 1.0 | 0.00 | 0.00 | 0.00 | 51 | 1002.8 |
| 20260503222520 | 51 | 338 | 1.0 | 1.0 | 0.00 | 0.00 | 0.00 | 50 | 1002.7 |
| 20260503222018 | 51 | 327 | 0.0 | 1.0 | 0.00 | 0.00 | 0.00 | 55 | 1002.5 |
| 20260503221516 | 51 | 305 | 1.0 | 1.0 | 0.00 | 0.00 | 0.00 | 53 | 1002.6 |
| 20260503221013 | 51 | 299 | 0.0 | 1.0 | 0.00 | 0.00 | 0.00 | 53 | 1002.4 |
| 20260503220509 | 51 | 303 | 1.0 | 2.0 | 0.00 | 0.00 | 0.00 | 53 | 1002.4 |
| 20260503220006 | 51 | 301 | 0.0 | 1.0 | 0.00 | 0.00 | 0.00 | 53 | 1002.5 |
| 20260503215503 | 51 | 307 | 1.0 | 1.0 | 0.00 | 0.00 | 0.00 | 54 | 1002.3 |
| 20260503215000 | 51 | 304 | 3.0 | 3.0 | 0.00 | 0.00 | 0.00 | 55 | 1002.1 |
| 20260503214459 | 51 | 307 | 0.0 | 0.0 | 0.00 | 0.00 | 0.00 | 56 | 1002.3 |
| 20260503213955 | 52 | 299 | 0.0 | 0.0 | 0.00 | 0.00 | 0.00 | 55 | 1002.0 |
| 20260503213454 | 52 | 311 | 0.0 | 1.0 | 0.00 | 0.00 | 0.00 | 52 | 1002.0 |
| 20260503212949 | 52 | 323 | 0.0 | 0.0 | 0.00 | 0.00 | 0.00 | 53 | 1002.0 |
| 20260503212447 | 52 | 312 | 0.0 | 0.0 | 0.00 | 0.00 | 0.00 | 53 | 1002.0 |
| 20260503211944 | 52 | 303 | 1.0 | 2.0 | 0.00 | 0.00 | 0.00 | 53 | 1002.0 |
| 20260503211441 | 52 | 308 | 0.0 | 1.0 | 0.00 | 0.00 | 0.00 | 53 | 1002.1 |
| 20260503210937 | 52 | 317 | 0.0 | 0.0 | 0.00 | 0.00 | 0.00 | 53 | 1002.0 |
| 20260503210434 | 52 | 279 | 2.0 | 2.0 | 0.00 | 0.00 | 0.00 | 53 | 1002.0 |
| 20260503205928 | 53 | 313 | 0.0 | 1.0 | 0.00 | 0.00 | 0.00 | 51 | 1002.0 |
| 20260503205426 | 53 | 321 | 1.0 | 1.0 | 0.00 | 0.00 | 0.00 | 52 | 1002.0 |
| 20260503204922 | 53 | 315 | 0.0 | 0.0 | 0.00 | 0.00 | 0.00 | 52 | 1002.0 |
| 20260503204419 | 53 | 296 | 1.0 | 2.0 | 0.00 | 0.00 | 0.00 | 52 | 1001.7 |
| 20260503203916 | 53 | 312 | 1.0 | 2.0 | 0.00 | 0.00 | 0.00 | 50 | 1001.8 |
| 20260503203414 | 53 | 304 | 2.0 | 3.0 | 0.00 | 0.00 | 0.00 | 51 | 1001.9 |
| 20260503202910 | 53 | 316 | 0.0 | 1.0 | 0.00 | 0.00 | 0.00 | 50 | 1002.0 |
| 20260503202409 | 53 | 278 | 1.0 | 2.0 | 0.00 | 0.00 | 0.00 | 51 | 1002.1 |
| 20260503201907 | 53 | 348 | 2.0 | 3.0 | 0.00 | 0.00 | 0.00 | 50 | 1001.9 |
| 20260503201403 | 53 | 333 | 1.0 | 2.0 | 0.00 | 0.00 | 0.00 | 51 | 1002.1 |
| 20260503200901 | 53 | 315 | 0.0 | 0.0 | 0.00 | 0.00 | 0.00 | 53 | 1001.8 |
| 20260503200356 | 54 | 324 | 0.0 | 1.0 | 0.00 | 0.00 | 0.00 | 53 | 1001.7 |
| 20260503195854 | 54 | 307 | 1.0 | 1.0 | 0.00 | 0.00 | 0.00 | 52 | 1001.8 |
| 20260503195350 | 54 | 300 | 2.0 | 2.0 | 0.00 | 0.00 | 0.00 | 53 | 1001.7 |
| 20260503194848 | 54 | 306 | 2.0 | 3.0 | 0.00 | 0.00 | 0.00 | 52 | 1001.8 |
| 20260503194344 | 54 | 316 | 1.0 | 2.0 | 0.00 | 0.00 | 0.00 | 53 | 1002.0 |
| 20260503193840 | 53 | 327 | 0.0 | 1.0 | 0.00 | 0.00 | 0.00 | 53 | 1002.2 |
| 20260503193336 | 53 | 317 | 1.0 | 2.0 | 0.00 | 0.00 | 0.00 | 54 | 1001.8 |
| 20260503192832 | 53 | 324 | 2.0 | 3.0 | 0.00 | 0.00 | 0.00 | 55 | 1002.1 |
| 20260503192328 | 52 | 314 | 2.0 | 2.0 | 0.00 | 0.00 | 0.00 | 57 | 1002.1 |
| 20260503191824 | 52 | 312 | 2.0 | 3.0 | 0.00 | 0.00 | 0.00 | 54 | 1002.2 |
| 20260503191321 | 52 | 312 | 0.0 | 0.0 | 0.00 | 0.00 | 0.00 | 56 | 1002.0 |
| 20260503190818 | 54 | 315 | 2.0 | 3.0 | 0.00 | 0.00 | 0.00 | 55 | 1002.1 |
| 20260503190315 | 53 | 282 | 0.0 | 2.0 | 0.00 | 0.00 | 0.00 | 55 | 1002.1 |
| 20260503185812 | 52 | 322 | 0.0 | 1.0 | 0.00 | 0.00 | 0.00 | 55 | 1001.9 |
| 20260503185308 | 52 | 309 | 1.0 | 2.0 | 0.00 | 0.00 | 0.00 | 56 | 1001.8 |
| 20260503184807 | 51 | 331 | 1.0 | 2.0 | 0.00 | 0.00 | 0.00 | 57 | 1002.1 |
| 20260503184304 | 52 | 313 | 0.0 | 1.0 | 0.00 | 0.00 | 0.00 | 58 | 1002.2 |
| 20260503183800 | 52 | 309 | 1.0 | 2.0 | 0.00 | 0.00 | 0.00 | 60 | 1001.7 |
| 20260503183258 | 52 | 311 | 0.0 | 0.0 | 0.00 | 0.00 | 0.00 | 59 | 1001.9 |
| 20260503182754 | 53 | 312 | 1.0 | 1.0 | 0.00 | 0.00 | 0.00 | 59 | 1002.1 |
| 20260503182254 | 52 | 312 | 1.0 | 1.0 | 0.00 | 0.00 | 0.00 | 63 | 1002.1 |
| 20260503181750 | 52 | 315 | 0.0 | 1.0 | 0.00 | 0.00 | 0.00 | 61 | 1002.0 |
| 20260503181247 | 52 | 308 | 1.0 | 1.0 | 0.00 | 0.00 | 0.00 | 62 | 1002.1 |
| 20260503180743 | 51 | 319 | 1.0 | 1.0 | 0.00 | 0.00 | 0.00 | 65 | 1002.1 |
| 20260503180242 | 50 | 38 | 1.0 | 3.0 | 0.00 | 0.00 | 0.00 | 64 | 1002.0 |
| 20260503175738 | 50 | 312 | 1.0 | 3.0 | 0.00 | 0.00 | 0.00 | 65 | 1002.5 |
| 20260503175236 | 50 | 301 | 1.0 | 1.0 | 0.00 | 0.00 | 0.00 | 64 | 1002.2 |
| 20260503174732 | 51 | 339 | 2.0 | 2.0 | 0.00 | 0.00 | 0.00 | 65 | 1002.2 |
| 20260503174231 | 50 | 316 | 1.0 | 1.0 | 0.00 | 0.00 | 0.00 | 68 | 1002.4 |
| 20260503173731 | 50 | 310 | 0.0 | 1.0 | 0.00 | 0.00 | 0.00 | 66 | 1002.2 |
| 20260503173227 | 50 | 303 | 3.0 | 3.0 | 0.00 | 0.00 | 0.00 | 67 | 1002.2 |
| 20260503172724 | 50 | 335 | 2.0 | 2.0 | 0.00 | 0.00 | 0.00 | 66 | 1002.2 |
| 20260503172221 | 50 | 308 | 1.0 | 2.0 | 0.00 | 0.00 | 0.00 | 68 | 1002.1 |
| 20260503171718 | 50 | 322 | 1.0 | 2.0 | 0.00 | 0.00 | 0.00 | 68 | 1002.2 |
| 20260503171215 | 50 | 310 | 2.0 | 3.0 | 0.00 | 0.00 | 0.00 | 67 | 1002.2 |
| 20260503170712 | 49 | 311 | 1.0 | 1.0 | 0.00 | 0.00 | 0.00 | 69 | 1002.3 |
| 20260503170209 | 49 | 345 | 3.0 | 6.0 | 0.00 | 0.00 | 0.00 | 68 | 1002.1 |
| 20260503160130 | 47 | 311 | 1.0 | 2.0 | 0.00 | 0.00 | 0.00 | 78 | 1002.5 |
| 20260503150600 | 47 | 328 | 1.0 | 2.0 | 0.00 | 0.00 | 0.00 | 83 | 1002.9 |
| 20260503130950 | 45 | 313 | 0.0 | 1.0 | 0.00 | 0.00 | 0.00 | 92 | 1003.7 |
| 20260503130448 | 45 | 313 | 1.0 | 1.0 | 0.00 | 0.00 | 0.00 | 92 | 1003.8 |
| 20260503110332 | 42 | 314 | 0.0 | 0.0 | 0.00 | 0.00 | 0.00 | 99 | 1004.6 |
| 20260503100258 | 42 | 312 | 0.0 | 1.0 | 0.00 | 0.00 | 0.00 | 99 | 1004.6 |
| 20260503090218 | 42 | 313 | 0.0 | 0.0 | 0.00 | 0.00 | 0.00 | 99 | 1005.3 |
| 20260503081145 | 43 | 314 | 0.0 | 0.0 | 0.00 | 0.00 | 0.00 | 99 | 1005.9 |
| 20260503080641 | 43 | 312 | 0.0 | 0.0 | 0.00 | 0.00 | 0.00 | 99 | 1006.0 |
| 20260503080138 | 43 | 314 | 0.0 | 0.0 | 0.00 | 0.00 | 0.00 | 99 | 1005.8 |
| 20260503072615 | 43 | 313 | 0.0 | 0.0 | 0.00 | 0.00 | 0.00 | 99 | 1006.0 |
| 20260503072112 | 43 | 313 | 0.0 | 0.0 | 0.00 | 0.00 | 0.00 | 99 | 1005.7 |
| 20260503071609 | 43 | 313 | 0.0 | 0.0 | 0.00 | 0.00 | 0.00 | 99 | 1006.1 |
| 20260503071105 | 43 | 314 | 0.0 | 0.0 | 0.00 | 0.00 | 0.00 | 99 | 1006.0 |
| 20260503070602 | 43 | 311 | 0.0 | 0.0 | 0.00 | 0.00 | 0.00 | 99 | 1006.0 |